CSN6165 ZSQD-ZYCC

Flight info

Callsign CSN6165
Flight time 1h 36m
Altitude 26600
Route TEKAM W172 IGDEG W173 NIXEP W8 DOBGA W202 UDETI A588 LEMOT
Aircraft B738/M-SDE2E3FGHIRWXY/LB1

Departure

Time 2026-05-04 04:09
Airport Qingdao Jiaodong International Airport (ZSQD)

Arrival

Time 2026-05-04 05:45
Airport Changchun Longjia International Airport (ZYCC)
Time Latitude Longitude Altitude Speed Heading
2026-05-04 03:25 36.36187 120.09212 37 ft 0 kts 192°
2026-05-04 03:57 36.36195 120.09214 37 ft 2 kts 192°
2026-05-04 03:58 36.36219 120.09219 37 ft 2 kts 170°
2026-05-04 03:58 36.36233 120.09212 37 ft 2 kts 143°
2026-05-04 03:58 36.36243 120.09199 37 ft 2 kts 115°
2026-05-04 03:59 36.36245 120.09189 37 ft 1 kts 98°
2026-05-04 03:59 36.36246 120.09183 37 ft 0 kts 101°
2026-05-04 04:01 36.36246 120.09184 37 ft 0 kts 101°
2026-05-04 04:01 36.36244 120.09194 37 ft 2 kts 101°
2026-05-04 04:01 36.36239 120.09228 37 ft 5 kts 102°
2026-05-04 04:02 36.36228 120.09286 37 ft 8 kts 102°
2026-05-04 04:02 36.36214 120.09365 37 ft 9 kts 103°
2026-05-04 04:02 36.36200 120.09441 37 ft 9 kts 102°
2026-05-04 04:02 36.36186 120.09524 37 ft 10 kts 99°
2026-05-04 04:03 36.36180 120.09612 37 ft 10 kts 108°
2026-05-04 04:03 36.36121 120.09663 37 ft 11 kts 162°
2026-05-04 04:03 36.36046 120.09693 37 ft 11 kts 150°
2026-05-04 04:03 36.36035 120.09782 37 ft 11 kts 72°
2026-05-04 04:04 36.36052 120.09879 37 ft 11 kts 105°
2026-05-04 04:04 36.35984 120.09936 37 ft 12 kts 162°
2026-05-04 04:04 36.35900 120.09970 37 ft 13 kts 162°
2026-05-04 04:04 36.35810 120.10006 37 ft 14 kts 162°
2026-05-04 04:05 36.35714 120.10044 37 ft 14 kts 161°
2026-05-04 04:05 36.35612 120.10085 37 ft 15 kts 162°
2026-05-04 04:05 36.35508 120.10126 37 ft 16 kts 162°
2026-05-04 04:05 36.35395 120.10171 37 ft 17 kts 162°
2026-05-04 04:06 36.35287 120.10212 37 ft 7 kts 163°
2026-05-04 04:06 36.35241 120.10240 37 ft 7 kts 132°
2026-05-04 04:06 36.35231 120.10301 37 ft 3 kts 71°
2026-05-04 04:06 36.35233 120.10310 37 ft 0 kts 71°
2026-05-04 04:07 36.35235 120.10317 37 ft 2 kts 72°
2026-05-04 04:07 36.35242 120.10344 37 ft 4 kts 72°
2026-05-04 04:07 36.35252 120.10381 37 ft 5 kts 72°
2026-05-04 04:07 36.35273 120.10417 37 ft 5 kts 32°
2026-05-04 04:08 36.35314 120.10424 37 ft 6 kts 342°
2026-05-04 04:08 36.35321 120.10421 37 ft 3 kts 341°
2026-05-04 04:08 36.35562 120.10326 37 ft 71 kts 342°
2026-05-04 04:08 36.36243 120.10059 37 ft 132 kts 342°
2026-05-04 04:09 36.37295 120.09654 132 ft 172 kts 343°
2026-05-04 04:09 36.38427 120.09260 747 ft 173 kts 342°
2026-05-04 04:09 36.39578 120.08799 1403 ft 176 kts 341°
2026-05-04 04:09 36.40747 120.08334 2001 ft 176 kts 342°
2026-05-04 04:10 36.41918 120.07864 2459 ft 181 kts 341°
2026-05-04 04:10 36.43133 120.07363 2967 ft 183 kts 341°
2026-05-04 04:10 36.44361 120.06870 3397 ft 189 kts 342°
2026-05-04 04:10 36.45652 120.06358 3706 ft 202 kts 342°
2026-05-04 04:11 36.47075 120.05820 3904 ft 223 kts 346°
2026-05-04 04:11 36.48669 120.05682 3895 ft 238 kts 11°
2026-05-04 04:11 36.50208 120.06582 3924 ft 257 kts 38°
2026-05-04 04:11 36.51372 120.08362 4227 ft 273 kts 60°
2026-05-04 04:12 36.52080 120.10568 4905 ft 273 kts 70°
2026-05-04 04:12 36.52640 120.12820 5497 ft 276 kts 71°
2026-05-04 04:12 36.53198 120.15131 6090 ft 278 kts 71°
2026-05-04 04:12 36.53766 120.17432 6720 ft 281 kts 70°
2026-05-04 04:13 36.54355 120.19769 7411 ft 282 kts 70°
2026-05-04 04:13 36.54943 120.22070 8091 ft 284 kts 70°
2026-05-04 04:13 36.55548 120.24431 8791 ft 286 kts 70°
2026-05-04 04:13 36.56145 120.26769 9496 ft 288 kts 70°
2026-05-04 04:14 36.56757 120.29171 10194 ft 292 kts 71°
2026-05-04 04:14 36.57379 120.31613 10663 ft 304 kts 71°
2026-05-04 04:14 36.58177 120.34141 11028 ft 320 kts 62°
2026-05-04 04:14 36.59526 120.36370 11302 ft 335 kts 41°
2026-05-04 04:15 36.61536 120.37911 11617 ft 346 kts 20°
2026-05-04 04:15 36.63876 120.38828 11966 ft 358 kts 14°
2026-05-04 04:15 36.66305 120.39700 12368 ft 369 kts 13°
2026-05-04 04:15 36.68794 120.40619 12962 ft 376 kts 13°
2026-05-04 04:16 36.71310 120.41570 13580 ft 382 kts 14°
2026-05-04 04:16 36.73853 120.42545 14243 ft 387 kts 14°
2026-05-04 04:16 36.76438 120.43544 14987 ft 391 kts 14°
2026-05-04 04:16 36.79053 120.44553 15706 ft 394 kts 14°
2026-05-04 04:17 36.81665 120.45560 16349 ft 399 kts 14°
2026-05-04 04:17 36.84346 120.46592 17071 ft 403 kts 14°
2026-05-04 04:17 36.87050 120.47632 17712 ft 407 kts 13°
2026-05-04 04:17 36.89732 120.48664 18350 ft 411 kts 13°
2026-05-04 04:18 36.92502 120.49730 19011 ft 415 kts 13°
2026-05-04 04:18 36.95267 120.50794 19617 ft 419 kts 13°
2026-05-04 04:18 36.98048 120.51865 20182 ft 423 kts 13°
2026-05-04 04:18 37.00890 120.52962 20756 ft 428 kts 13°
2026-05-04 04:19 37.03718 120.54055 21364 ft 431 kts 13°
2026-05-04 04:19 37.06623 120.55179 21925 ft 435 kts 13°
2026-05-04 04:19 37.09516 120.56298 22442 ft 440 kts 13°
2026-05-04 04:19 37.12484 120.57448 23044 ft 442 kts 13°
2026-05-04 04:20 37.15464 120.58603 23512 ft 447 kts 13°
2026-05-04 04:20 37.18450 120.59761 24121 ft 449 kts 13°
2026-05-04 04:20 37.21439 120.60922 24659 ft 452 kts 13°
2026-05-04 04:20 37.24479 120.62105 25249 ft 453 kts 13°
2026-05-04 04:21 37.27470 120.63271 26014 ft 450 kts 13°
2026-05-04 04:21 37.30489 120.64450 26573 ft 450 kts 13°
2026-05-04 04:21 37.33483 120.65618 26638 ft 451 kts 13°
2026-05-04 04:21 37.36475 120.66786 26643 ft 448 kts 13°
2026-05-04 04:22 37.39491 120.67966 26642 ft 448 kts 13°
2026-05-04 04:22 37.42443 120.69119 26649 ft 448 kts 13°
2026-05-04 04:22 37.45480 120.70306 26651 ft 449 kts 13°
2026-05-04 04:22 37.48447 120.71468 26645 ft 449 kts 13°
2026-05-04 04:23 37.51417 120.72632 26640 ft 448 kts 13°
2026-05-04 04:23 37.54441 120.73813 26640 ft 448 kts 13°
2026-05-04 04:23 37.57426 120.74876 26641 ft 446 kts 10°
2026-05-04 04:23 37.60464 120.75662 26637 ft 443 kts
2026-05-04 04:24 37.63514 120.76204 26633 ft 441 kts
2026-05-04 04:24 37.66582 120.76615 26633 ft 441 kts
2026-05-04 04:24 37.69612 120.76961 26634 ft 440 kts
2026-05-04 04:24 37.72664 120.77288 26630 ft 440 kts
2026-05-04 04:25 37.75701 120.77611 26630 ft 440 kts
2026-05-04 04:25 37.78763 120.77943 26635 ft 440 kts
2026-05-04 04:25 37.81791 120.78280 26629 ft 440 kts
2026-05-04 04:25 37.84846 120.78629 26632 ft 439 kts
2026-05-04 04:26 37.87901 120.78983 26630 ft 439 kts
2026-05-04 04:26 37.90951 120.79342 26631 ft 440 kts
2026-05-04 04:26 37.93957 120.79699 26632 ft 438 kts
2026-05-04 04:26 37.97007 120.80151 26629 ft 440 kts
2026-05-04 04:27 38.00020 120.80949 26625 ft 444 kts 12°
2026-05-04 04:27 38.02928 120.82319 26633 ft 449 kts 20°
2026-05-04 04:27 38.05728 120.84083 26631 ft 451 kts 24°
2026-05-04 04:27 38.08445 120.86018 26629 ft 452 kts 26°
2026-05-04 04:28 38.11157 120.88062 26627 ft 451 kts 27°
2026-05-04 04:28 38.13820 120.90115 26627 ft 451 kts 27°
2026-05-04 04:28 38.16497 120.92190 26621 ft 451 kts 27°
2026-05-04 04:28 38.19196 120.94280 26620 ft 449 kts 27°
2026-05-04 04:29 38.21775 120.96560 26618 ft 456 kts 35°
2026-05-04 04:29 38.24039 120.99348 26628 ft 462 kts 44°
2026-05-04 04:29 38.26020 121.02592 26615 ft 463 kts 51°
2026-05-04 04:29 38.27681 121.06078 26614 ft 467 kts 57°
2026-05-04 04:30 38.29161 121.09824 26620 ft 472 kts 60°
2026-05-04 04:30 38.30512 121.13625 26619 ft 473 kts 62°
2026-05-04 04:30 38.31792 121.17416 26620 ft 471 kts 63°
2026-05-04 04:30 38.33072 121.21281 26611 ft 471 kts 63°
2026-05-04 04:31 38.34342 121.25118 26619 ft 472 kts 63°
2026-05-04 04:31 38.35604 121.28912 26618 ft 471 kts 63°
2026-05-04 04:31 38.36898 121.32777 26610 ft 469 kts 62°
2026-05-04 04:31 38.38185 121.36590 26614 ft 470 kts 62°
2026-05-04 04:32 38.39469 121.40375 26607 ft 470 kts 62°
2026-05-04 04:32 38.40767 121.44184 26607 ft 469 kts 62°
2026-05-04 04:32 38.42089 121.47986 26608 ft 469 kts 61°
2026-05-04 04:32 38.43494 121.51719 26614 ft 468 kts 59°
2026-05-04 04:33 38.44958 121.55402 26604 ft 467 kts 58°
2026-05-04 04:33 38.46453 121.59070 26608 ft 467 kts 58°
2026-05-04 04:33 38.47951 121.62715 26608 ft 468 kts 58°
2026-05-04 04:33 38.49463 121.66406 26604 ft 467 kts 58°
2026-05-04 04:34 38.50962 121.70086 26611 ft 468 kts 58°
2026-05-04 04:34 38.52451 121.73765 26602 ft 467 kts 58°
2026-05-04 04:34 38.53927 121.77436 26600 ft 466 kts 59°
2026-05-04 04:34 38.55400 121.81114 26598 ft 466 kts 59°
2026-05-04 04:35 38.56868 121.84795 26593 ft 466 kts 59°
2026-05-04 04:35 38.58335 121.88487 26584 ft 466 kts 59°
2026-05-04 04:35 38.59785 121.92142 26589 ft 466 kts 59°
2026-05-04 04:35 38.61240 121.95818 26590 ft 466 kts 59°
2026-05-04 04:36 38.62707 121.99532 26596 ft 467 kts 59°
2026-05-04 04:36 38.64169 122.03235 26594 ft 466 kts 59°
2026-05-04 04:36 38.65630 122.06943 26584 ft 465 kts 59°
2026-05-04 04:36 38.67097 122.10557 26585 ft 462 kts 57°
2026-05-04 04:37 38.73365 122.19479 26588 ft 448 kts 30°
2026-05-04 04:37 38.75964 122.21671 26582 ft 445 kts 28°
2026-05-04 04:38 38.78580 122.23734 26573 ft 442 kts 27°
2026-05-04 04:38 38.81212 122.25751 26576 ft 443 kts 26°
2026-05-04 04:38 38.83871 122.27776 26575 ft 445 kts 26°
2026-05-04 04:38 38.86543 122.29820 26582 ft 445 kts 27°
2026-05-04 04:39 38.89180 122.31857 26579 ft 443 kts 27°
2026-05-04 04:39 38.91797 122.33894 26580 ft 442 kts 27°
2026-05-04 04:39 38.94433 122.35961 26585 ft 443 kts 27°
2026-05-04 04:39 38.97063 122.38033 26586 ft 442 kts 27°
2026-05-04 04:40 38.99676 122.40099 26582 ft 442 kts 27°
2026-05-04 04:40 39.02286 122.42168 26575 ft 442 kts 28°
2026-05-04 04:40 39.04908 122.44251 26565 ft 441 kts 28°
2026-05-04 04:40 39.07513 122.46324 26568 ft 442 kts 28°
2026-05-04 04:41 39.10104 122.48389 26567 ft 442 kts 28°
2026-05-04 04:41 39.12760 122.50507 26555 ft 440 kts 28°
2026-05-04 04:41 39.15347 122.52574 26552 ft 440 kts 28°
2026-05-04 04:41 39.17925 122.54633 26545 ft 439 kts 28°
2026-05-04 04:42 39.20516 122.56704 26550 ft 440 kts 28°
2026-05-04 04:42 39.23117 122.58786 26548 ft 439 kts 28°
2026-05-04 04:42 39.25731 122.60881 26547 ft 439 kts 28°
2026-05-04 04:42 39.28302 122.62910 26549 ft 438 kts 27°
2026-05-04 04:43 39.30956 122.64878 26546 ft 438 kts 25°
2026-05-04 04:43 39.33632 122.66784 26537 ft 437 kts 25°
2026-05-04 04:43 39.36308 122.68657 26534 ft 437 kts 25°
2026-05-04 04:43 39.38977 122.70521 26541 ft 435 kts 25°
2026-05-04 04:44 39.41618 122.72370 26533 ft 435 kts 25°
2026-05-04 04:44 39.44290 122.74252 26538 ft 436 kts 25°
2026-05-04 04:44 39.46915 122.76109 26531 ft 434 kts 26°
2026-05-04 04:44 39.49577 122.78001 26527 ft 435 kts 26°
2026-05-04 04:45 39.52227 122.79890 26538 ft 435 kts 26°
2026-05-04 04:45 39.54845 122.81762 26515 ft 432 kts 26°
2026-05-04 04:45 39.57494 122.83661 26523 ft 432 kts 26°
2026-05-04 04:47 39.73281 122.95023 26514 ft 433 kts 26°
2026-05-04 04:47 39.75892 122.96908 26502 ft 431 kts 26°
2026-05-04 04:47 39.78549 122.98829 26514 ft 431 kts 26°
2026-05-04 04:47 39.81155 123.00715 26506 ft 431 kts 26°
2026-05-04 04:48 39.83786 123.02619 26506 ft 429 kts 26°
2026-05-04 04:49 39.94236 123.10202 26502 ft 428 kts 26°
2026-05-04 04:49 39.96822 123.12082 26497 ft 428 kts 26°
2026-05-04 04:49 39.99426 123.13976 26498 ft 427 kts 26°
2026-05-04 04:49 40.02060 123.15895 26500 ft 428 kts 26°
2026-05-04 04:50 40.04636 123.17774 26493 ft 427 kts 26°
2026-05-04 04:50 40.07241 123.19666 26492 ft 427 kts 26°
2026-05-04 04:50 40.09845 123.21545 26489 ft 427 kts 26°
2026-05-04 04:50 40.12492 123.23450 26490 ft 426 kts 26°
2026-05-04 04:51 40.15116 123.25337 26486 ft 426 kts 26°
2026-05-04 04:51 40.17694 123.27191 26477 ft 426 kts 26°
2026-05-04 04:51 40.20313 123.29077 26481 ft 427 kts 26°
2026-05-04 04:51 40.22918 123.30957 26485 ft 426 kts 26°
2026-05-04 04:52 40.25494 123.32818 26476 ft 425 kts 26°
2026-05-04 04:52 40.28107 123.34706 26481 ft 425 kts 26°
2026-05-04 04:52 40.30669 123.36561 26478 ft 425 kts 26°
2026-05-04 04:52 40.33273 123.38448 26481 ft 425 kts 25°
2026-05-04 04:53 40.35844 123.40314 26477 ft 425 kts 25°
2026-05-04 04:53 40.38444 123.42204 26488 ft 426 kts 26°
2026-05-04 04:53 40.41058 123.44106 26488 ft 424 kts 25°
2026-05-04 04:53 40.43624 123.45975 26488 ft 424 kts 25°
2026-05-04 04:54 40.46216 123.47862 26486 ft 424 kts 25°
2026-05-04 04:54 40.48775 123.49728 26485 ft 425 kts 25°
2026-05-04 04:54 40.51371 123.51623 26478 ft 424 kts 25°
2026-05-04 04:54 40.53958 123.53513 26486 ft 424 kts 25°
2026-05-04 04:55 40.56515 123.55382 26483 ft 423 kts 25°
2026-05-04 04:55 40.59108 123.57278 26482 ft 423 kts 25°
2026-05-04 04:55 40.61660 123.59145 26484 ft 423 kts 25°
2026-05-04 04:55 40.64251 123.61043 26489 ft 424 kts 25°
2026-05-04 04:56 40.66842 123.62940 26492 ft 423 kts 25°
2026-05-04 04:56 40.69395 123.64813 26490 ft 422 kts 25°
2026-05-04 04:56 40.72002 123.66727 26486 ft 421 kts 26°
2026-05-04 04:56 40.74572 123.68615 26487 ft 422 kts 26°
2026-05-04 04:57 40.77162 123.70518 26488 ft 423 kts 26°
2026-05-04 04:57 40.79718 123.72399 26486 ft 421 kts 26°
2026-05-04 04:57 40.82290 123.74293 26486 ft 423 kts 25°
2026-05-04 04:57 40.84854 123.76173 26483 ft 421 kts 25°
2026-05-04 04:58 40.87455 123.78048 26487 ft 422 kts 25°
2026-05-04 04:58 40.90024 123.79880 26479 ft 421 kts 25°
2026-05-04 04:58 40.92636 123.81735 26477 ft 421 kts 25°
2026-05-04 04:58 40.95191 123.83551 26472 ft 420 kts 25°
2026-05-04 04:59 40.97773 123.85390 26469 ft 419 kts 25°
2026-05-04 04:59 41.00350 123.87230 26468 ft 419 kts 25°
2026-05-04 04:59 41.02914 123.89064 26466 ft 419 kts 25°
2026-05-04 04:59 41.05500 123.90916 26465 ft 419 kts 25°
2026-05-04 05:00 41.08057 123.92750 26463 ft 419 kts 25°
2026-05-04 05:00 41.10636 123.94601 26457 ft 420 kts 25°
2026-05-04 05:00 41.15863 123.98360 26456 ft 420 kts 25°
2026-05-04 05:01 41.18415 124.00199 26452 ft 420 kts 24°
2026-05-04 05:01 41.20975 124.02046 26450 ft 419 kts 25°
2026-05-04 05:01 41.23549 124.03906 26453 ft 420 kts 24°
2026-05-04 05:01 41.26140 124.05778 26450 ft 420 kts 24°
2026-05-04 05:02 41.28723 124.07647 26454 ft 419 kts 24°
2026-05-04 05:02 41.31285 124.09502 26450 ft 419 kts 24°
2026-05-04 05:02 41.33839 124.11353 26449 ft 420 kts 24°
2026-05-04 05:02 41.36436 124.13235 26448 ft 421 kts 24°
2026-05-04 05:03 41.39015 124.15107 26448 ft 419 kts 24°
2026-05-04 05:03 41.41566 124.16964 26448 ft 419 kts 25°
2026-05-04 05:04 41.49216 124.22694 26440 ft 419 kts 25°
2026-05-04 05:04 41.51763 124.24621 26436 ft 418 kts 25°
2026-05-04 05:04 41.54280 124.26527 26433 ft 418 kts 25°
2026-05-04 05:06 41.72048 124.39983 26422 ft 416 kts 25°
2026-05-04 05:06 41.74596 124.41916 26419 ft 417 kts 25°
2026-05-04 05:06 41.77114 124.43829 26418 ft 419 kts 25°
2026-05-04 05:07 41.79666 124.45768 26415 ft 418 kts 25°
2026-05-04 05:07 41.82180 124.47681 26415 ft 417 kts 25°
2026-05-04 05:07 41.84709 124.49609 26414 ft 417 kts 25°
2026-05-04 05:09 42.05040 124.64740 26407 ft 414 kts 21°
2026-05-04 05:09 42.07675 124.66510 26402 ft 415 kts 22°
2026-05-04 05:10 42.10272 124.68252 26391 ft 415 kts 22°
2026-05-04 05:10 42.12857 124.69999 26123 ft 405 kts 22°
2026-05-04 05:10 42.15359 124.71704 25849 ft 393 kts 22°
2026-05-04 05:10 42.17784 124.73367 25574 ft 382 kts 22°
2026-05-04 05:11 42.20113 124.74968 25301 ft 372 kts 22°
2026-05-04 05:11 42.22402 124.76543 25019 ft 362 kts 22°
2026-05-04 05:11 42.24639 124.78085 24732 ft 352 kts 22°
2026-05-04 05:11 42.26774 124.79555 24456 ft 343 kts 22°
2026-05-04 05:12 42.28892 124.81016 24175 ft 334 kts 21°
2026-05-04 05:12 42.30935 124.82426 23899 ft 329 kts 22°
2026-05-04 05:12 42.33001 124.83849 23633 ft 331 kts 21°
2026-05-04 05:12 42.35058 124.85263 23367 ft 333 kts 22°
2026-05-04 05:13 42.37111 124.86679 23095 ft 333 kts 22°
2026-05-04 05:13 42.39178 124.88108 22823 ft 334 kts 22°
2026-05-04 05:13 42.41277 124.89562 22550 ft 334 kts 22°
2026-05-04 05:13 42.43333 124.90987 22280 ft 335 kts 22°
2026-05-04 05:14 42.45405 124.92424 22011 ft 336 kts 22°
2026-05-04 05:14 42.47488 124.93871 21739 ft 337 kts 22°
2026-05-04 05:14 42.49586 124.95330 21469 ft 337 kts 22°
2026-05-04 05:14 42.51661 124.96775 21202 ft 339 kts 22°
2026-05-04 05:15 42.53777 124.98250 20927 ft 339 kts 22°
2026-05-04 05:15 42.55872 124.99717 20658 ft 340 kts 22°
2026-05-04 05:15 42.57980 125.01186 20393 ft 341 kts 22°
2026-05-04 05:15 42.60082 125.02653 20129 ft 340 kts 22°
2026-05-04 05:16 42.62182 125.04130 19865 ft 341 kts 22°
2026-05-04 05:16 42.64279 125.05598 19603 ft 344 kts 22°
2026-05-04 05:16 42.66431 125.07094 19340 ft 345 kts 22°
2026-05-04 05:16 42.68563 125.08573 19076 ft 345 kts 22°
2026-05-04 05:17 42.70698 125.10066 18808 ft 346 kts 22°
2026-05-04 05:17 42.72824 125.11556 18546 ft 346 kts 22°
2026-05-04 05:17 42.74956 125.13057 18281 ft 345 kts 22°
2026-05-04 05:17 42.77097 125.14549 18026 ft 347 kts 22°
2026-05-04 05:18 42.79242 125.16065 17769 ft 349 kts 23°
2026-05-04 05:18 42.81329 125.17851 17511 ft 356 kts 31°
2026-05-04 05:18 42.83164 125.20134 17262 ft 363 kts 41°
2026-05-04 05:18 42.84741 125.22839 17015 ft 370 kts 47°
2026-05-04 05:19 42.86215 125.25757 16763 ft 372 kts 49°
2026-05-04 05:19 42.87627 125.28717 16513 ft 374 kts 50°
2026-05-04 05:19 42.89032 125.31667 16265 ft 374 kts 50°
2026-05-04 05:19 42.90463 125.34483 16017 ft 370 kts 45°
2026-05-04 05:20 42.92124 125.36842 15776 ft 362 kts 33°
2026-05-04 05:20 42.94178 125.38743 15535 ft 357 kts 24°
2026-05-04 05:20 42.96385 125.40363 15281 ft 354 kts 21°
2026-05-04 05:20 42.98577 125.41856 15022 ft 356 kts 21°
2026-05-04 05:21 43.00824 125.43368 14792 ft 358 kts 21°
2026-05-04 05:21 43.03062 125.44892 14580 ft 358 kts 21°
2026-05-04 05:21 43.05272 125.46418 14359 ft 355 kts 22°
2026-05-04 05:21 43.07497 125.47972 14099 ft 356 kts 22°
2026-05-04 05:22 43.09694 125.49510 13844 ft 359 kts 22°
2026-05-04 05:22 43.11971 125.51109 13583 ft 360 kts 22°
2026-05-04 05:22 43.14199 125.52676 13327 ft 362 kts 22°
2026-05-04 05:22 43.16461 125.54269 13069 ft 364 kts 22°
2026-05-04 05:23 43.18716 125.55862 12813 ft 366 kts 22°
2026-05-04 05:23 43.20976 125.57462 12557 ft 367 kts 23°
2026-05-04 05:23 43.23246 125.59074 12301 ft 368 kts 23°
2026-05-04 05:23 43.25533 125.60696 12044 ft 368 kts 23°
2026-05-04 05:24 43.27815 125.62315 11792 ft 369 kts 23°
2026-05-04 05:24 43.30087 125.63924 11566 ft 369 kts 23°
2026-05-04 05:24 43.32398 125.65557 11542 ft 371 kts 24°
2026-05-04 05:24 43.34749 125.67221 11428 ft 375 kts 24°
2026-05-04 05:25 43.37087 125.68694 11171 ft 370 kts 17°
2026-05-04 05:25 43.39597 125.69484 10914 ft 364 kts
2026-05-04 05:25 43.42088 125.69176 10665 ft 359 kts 344°
2026-05-04 05:25 43.44465 125.68051 10415 ft 357 kts 337°
2026-05-04 05:26 43.46762 125.66769 10158 ft 357 kts 336°
2026-05-04 05:26 43.49052 125.65480 9903 ft 356 kts 336°
2026-05-04 05:26 43.51314 125.64210 9638 ft 343 kts 336°
2026-05-04 05:26 43.53470 125.63007 9359 ft 321 kts 336°
2026-05-04 05:27 43.55493 125.61885 9096 ft 302 kts 336°
2026-05-04 05:28 43.67975 125.58511 7345 ft 274 kts 32°
2026-05-04 05:29 43.69443 125.60230 7101 ft 276 kts 43°
2026-05-04 05:29 43.70727 125.62192 6901 ft 274 kts 47°
2026-05-04 05:29 43.71958 125.64230 6895 ft 275 kts 48°
2026-05-04 05:29 43.73199 125.66277 6890 ft 276 kts 47°
2026-05-04 05:31 43.82375 125.79726 6888 ft 270 kts 17°
2026-05-04 05:31 43.84203 125.80180 6892 ft 265 kts 356°
2026-05-04 05:32 43.86026 125.79999 6890 ft 264 kts 351°
2026-05-04 05:32 43.87835 125.79741 6887 ft 263 kts 351°
2026-05-04 05:32 43.89688 125.79490 6883 ft 264 kts 352°
2026-05-04 05:33 43.93328 125.79983 6404 ft 269 kts 26°
2026-05-04 05:33 43.94767 125.81667 6175 ft 272 kts 47°
2026-05-04 05:33 43.95965 125.83697 5928 ft 273 kts 49°
2026-05-04 05:33 43.97158 125.85728 5679 ft 271 kts 48°
2026-05-04 05:34 43.98381 125.87749 5431 ft 270 kts 47°
2026-05-04 05:34 43.99600 125.89726 5187 ft 269 kts 47°
2026-05-04 05:34 44.00828 125.91705 4951 ft 268 kts 47°
2026-05-04 05:34 44.02020 125.93632 4919 ft 261 kts 47°
2026-05-04 05:35 44.03200 125.95546 4918 ft 255 kts 47°
2026-05-04 05:35 44.04329 125.97379 4920 ft 246 kts 47°
2026-05-04 05:35 44.05425 125.99161 4922 ft 238 kts 47°
2026-05-04 05:35 44.06504 126.00911 4926 ft 238 kts 47°
2026-05-04 05:36 44.07597 126.02685 4925 ft 238 kts 47°
2026-05-04 05:36 44.08679 126.04444 4925 ft 238 kts 47°
2026-05-04 05:36 44.09787 126.06127 4920 ft 237 kts 35°
2026-05-04 05:36 44.11301 126.06988 4915 ft 230 kts 358°
2026-05-04 05:37 44.12861 126.06553 4923 ft 224 kts 331°
2026-05-04 05:37 44.14149 126.05355 4680 ft 222 kts 314°
2026-05-04 05:37 44.15155 126.03732 4436 ft 218 kts 303°
2026-05-04 05:38 44.16793 126.00202 3945 ft 213 kts 292°
2026-05-04 05:38 44.17097 125.98225 3699 ft 211 kts 264°
2026-05-04 05:38 44.16640 125.96330 3794 ft 211 kts 240°
2026-05-04 05:38 44.15770 125.94623 3562 ft 218 kts 233°
2026-05-04 05:39 44.14794 125.92998 3322 ft 216 kts 231°
2026-05-04 05:39 44.12898 125.89920 2976 ft 194 kts 231°
2026-05-04 05:39 44.12041 125.88537 3003 ft 180 kts 231°
2026-05-04 05:40 44.10506 125.86045 2990 ft 163 kts 232°
2026-05-04 05:40 44.09781 125.84872 2991 ft 158 kts 231°
2026-05-04 05:40 44.09052 125.83694 2996 ft 159 kts 231°
2026-05-04 05:41 44.08340 125.82546 3011 ft 154 kts 231°
2026-05-04 05:41 44.07649 125.81427 2903 ft 153 kts 231°
2026-05-04 05:41 44.06964 125.80318 2653 ft 150 kts 231°
2026-05-04 05:41 44.06290 125.79240 2467 ft 146 kts 231°
2026-05-04 05:42 44.05618 125.78146 2251 ft 149 kts 232°
2026-05-04 05:42 44.04952 125.77074 2048 ft 147 kts 233°
2026-05-04 05:42 44.04292 125.76018 1851 ft 147 kts 233°
2026-05-04 05:42 44.03616 125.74924 1646 ft 154 kts 236°
2026-05-04 05:43 44.02901 125.73779 1450 ft 162 kts 232°
2026-05-04 05:43 44.02158 125.72585 1215 ft 166 kts 235°
2026-05-04 05:43 44.01397 125.71368 977 ft 166 kts 232°
2026-05-04 05:45 43.98845 125.67613 711 ft 8 kts 48°
2026-05-04 05:45 43.98880 125.67671 711 ft 9 kts 49°
2026-05-04 05:47 43.99467 125.68614 710 ft 16 kts 50°
2026-05-04 05:47 43.99532 125.68722 710 ft 13 kts 50°
2026-05-04 05:47 43.99584 125.68806 710 ft 9 kts 49°
2026-05-04 05:48 43.99622 125.68868 710 ft 9 kts 50°
2026-05-04 05:48 43.99669 125.68944 710 ft 11 kts 49°
2026-05-04 05:48 43.99729 125.69039 710 ft 14 kts 50°
2026-05-04 05:48 43.99798 125.69153 710 ft 16 kts 49°
2026-05-04 05:49 43.99880 125.69283 710 ft 19 kts 50°
2026-05-04 05:49 43.99939 125.69401 710 ft 9 kts 88°
2026-05-04 05:49 43.99910 125.69466 710 ft 8 kts 137°
2026-05-04 05:49 43.99871 125.69527 710 ft 7 kts 108°
2026-05-04 05:51 43.99826 125.69654 710 ft 0 kts 139°